Time,TemperatureF,DewpointF,PressureIn,WindDirection,WindDirectionDegrees,WindSpeedMPH,WindSpeedGustMPH,Humidity,HourlyPrecipIn,Conditions,Clouds,dailyrainin,SoftwareType,DateUTC
2013-06-23 00:01:00,75.0,74.0,29.80,SE,128,6.0,9.0,96,0.00,,,0.14,,2013-06-23 05:01:00,
2013-06-23 00:11:00,75.0,74.0,29.80,SE,128,6.0,9.0,96,0.00,,,0.14,,2013-06-23 05:11:00,
2013-06-23 00:42:00,78.0,69.0,29.71,SSE,150,12.0,17.0,74,0.00,,,0.14,,2013-06-23 05:42:00,
2013-06-23 00:52:00,78.0,69.0,29.71,SSE,160,9.0,18.0,75,0.00,,,0.14,,2013-06-23 05:52:00,
2013-06-23 01:02:00,78.0,70.0,29.71,SSE,166,12.0,17.0,77,0.00,,,0.14,,2013-06-23 06:02:00,
2013-06-23 01:12:00,78.0,71.0,29.72,SSE,150,9.0,17.0,78,0.00,,,0.14,,2013-06-23 06:12:00,
2013-06-23 01:22:00,78.0,71.0,29.73,SSE,166,8.0,13.0,78,0.00,,,0.14,,2013-06-23 06:22:00,
2013-06-23 01:33:00,78.0,71.0,29.73,South,169,10.0,16.0,78,0.00,,,0.14,,2013-06-23 06:33:00,
2013-06-23 01:43:00,79.0,71.0,29.73,SSE,149,9.0,16.0,76,0.00,,,0.14,,2013-06-23 06:43:00,
2013-06-23 01:52:00,79.0,70.0,29.73,South,185,8.0,15.0,75,0.00,,,0.14,,2013-06-23 06:52:00,
2013-06-23 02:02:00,79.0,70.0,29.72,South,179,10.0,23.0,74,0.00,,,0.14,,2013-06-23 07:02:00,
2013-06-23 02:12:00,79.0,70.0,29.73,South,172,8.0,15.0,74,0.00,,,0.14,,2013-06-23 07:12:00,
2013-06-23 02:22:00,79.0,70.0,29.72,SSE,153,8.0,17.0,75,0.00,,,0.14,,2013-06-23 07:22:00,
2013-06-23 02:34:00,79.0,70.0,29.72,SSE,157,9.0,15.0,75,0.00,,,0.14,,2013-06-23 07:34:00,
2013-06-23 02:43:00,79.0,70.0,29.72,South,173,10.0,17.0,75,0.00,,,0.14,,2013-06-23 07:43:00,
2013-06-23 02:53:00,79.0,70.0,29.75,South,173,7.0,12.0,75,0.00,,,0.14,,2013-06-23 07:53:00,
2013-06-23 03:02:00,79.0,70.0,29.77,SSW,200,8.0,21.0,75,0.00,,,0.14,,2013-06-23 08:02:00,
2013-06-23 03:11:00,78.0,70.0,29.78,SSE,164,8.0,16.0,76,0.01,,,0.15,,2013-06-23 08:11:00,
2013-06-23 03:22:00,78.0,70.0,29.79,SSW,199,10.0,15.0,76,0.01,,,0.15,,2013-06-23 08:22:00,
2013-06-23 03:33:00,78.0,70.0,29.80,SW,234,12.0,18.0,76,0.01,,,0.15,,2013-06-23 08:33:00,
2013-06-23 03:42:00,70.0,67.0,29.82,WNW,292,16.0,23.0,90,0.01,,,0.14,,2013-06-23 08:42:00,
2013-06-23 03:53:00,68.0,67.0,29.83,WNW,303,9.0,14.0,96,0.01,,,0.14,,2013-06-23 08:53:00,
2013-06-23 04:02:00,68.0,67.0,29.85,NW,308,7.0,8.0,96,0.00,,,0.13,,2013-06-23 09:02:00,
2013-06-23 04:12:00,68.0,67.0,29.86,NW,307,8.0,9.0,95,0.00,,,0.13,,2013-06-23 09:12:00,
2013-06-23 04:22:00,68.0,67.0,29.87,NW,320,6.0,10.0,97,0.00,,,0.13,,2013-06-23 09:22:00,
2013-06-23 04:34:00,66.0,66.0,29.83,NW,320,5.0,7.0,99,0.01,,,0.14,,2013-06-23 09:34:00,
2013-06-23 04:43:00,66.0,66.0,29.83,NNW,334,7.0,13.0,99,0.01,,,0.14,,2013-06-23 09:43:00,
2013-06-23 04:53:00,66.0,66.0,29.87,NW,315,6.0,7.0,99,0.01,,,0.14,,2013-06-23 09:53:00,
2013-06-23 05:02:00,65.0,65.0,29.87,West,281,8.0,12.0,99,0.01,,,0.14,,2013-06-23 10:02:00,
2013-06-23 05:11:00,65.0,65.0,29.88,West,273,8.0,13.0,99,0.01,,,0.14,,2013-06-23 10:11:00,
2013-06-23 05:22:00,65.0,65.0,29.89,West,269,9.0,14.0,99,0.01,,,0.14,,2013-06-23 10:22:00,
2013-06-23 05:34:00,65.0,65.0,29.85,NNW,337,3.0,6.0,99,0.01,,,0.15,,2013-06-23 10:34:00,
2013-06-23 05:43:00,65.0,65.0,29.85,NW,317,1.0,5.0,99,0.01,,,0.15,,2013-06-23 10:43:00,
2013-06-23 05:52:00,64.0,64.0,29.88,West,272,3.0,5.0,99,0.01,,,0.15,,2013-06-23 10:52:00,
2013-06-23 06:01:00,64.0,64.0,29.86,NW,304,5.0,8.0,99,0.01,,,0.15,,2013-06-23 11:01:00,
2013-06-23 06:11:00,64.0,64.0,29.87,SSE,157,2.0,3.0,99,0.01,,,0.15,,2013-06-23 11:11:00,
2013-06-23 06:22:00,64.0,64.0,29.86,SSE,159,3.0,5.0,99,0.01,,,0.14,,2013-06-23 11:22:00,
2013-06-23 06:33:00,63.0,63.0,29.87,SSE,149,7.0,10.0,99,0.00,,,0.13,,2013-06-23 11:33:00,
2013-06-23 06:43:00,63.0,63.0,29.86,SSE,152,7.0,12.0,99,0.01,,,0.14,,2013-06-23 11:43:00,
2013-06-23 06:53:00,63.0,63.0,29.84,SE,145,8.0,10.0,99,0.01,,,0.14,,2013-06-23 11:53:00,
2013-06-23 07:01:00,63.0,63.0,29.81,SE,144,9.0,13.0,99,0.01,,,0.14,,2013-06-23 12:01:00,
2013-06-23 07:12:00,63.0,63.0,29.87,SSE,166,6.0,8.0,99,0.00,,,0.14,,2013-06-23 12:12:00,
2013-06-23 07:22:00,63.0,63.0,29.72,SE,137,8.0,13.0,99,0.01,,,0.14,,2013-06-23 12:22:00,
2013-06-23 07:33:00,63.0,63.0,29.70,SE,131,9.0,10.0,99,0.01,,,0.14,,2013-06-23 12:33:00,
2013-06-23 07:42:00,63.0,63.0,29.70,SSE,159,6.0,9.0,99,0.00,,,0.14,,2013-06-23 12:42:00,
2013-06-23 07:53:00,63.0,63.0,29.72,SE,126,1.0,6.0,99,0.00,,,0.14,,2013-06-23 12:53:00,
2013-06-23 08:01:00,64.0,64.0,29.74,ENE,69,0.0,0.0,99,0.00,,,0.14,,2013-06-23 13:01:00,
2013-06-23 08:11:00,64.0,64.0,29.76,NW,319,0.0,0.0,99,0.00,,,0.14,,2013-06-23 13:11:00,
2013-06-23 08:23:00,64.0,64.0,29.77,NW,319,0.0,0.0,99,0.00,,,0.14,,2013-06-23 13:23:00,
2013-06-23 08:34:00,64.0,64.0,29.78,NW,317,2.0,5.0,99,0.00,,,0.14,,2013-06-23 13:34:00,
2013-06-23 08:43:00,64.0,64.0,29.78,NNW,339,0.0,0.0,99,0.00,,,0.14,,2013-06-23 13:43:00,
2013-06-23 08:53:00,65.0,65.0,29.80,SW,223,0.0,0.0,99,0.00,,,0.14,,2013-06-23 13:53:00,
2013-06-23 09:04:00,65.0,65.0,29.82,WNW,289,5.0,6.0,99,0.00,,,0.14,,2013-06-23 14:04:00,
2013-06-23 09:11:00,65.0,65.0,29.85,NW,307,6.0,8.0,99,0.00,,,0.14,,2013-06-23 14:11:00,
2013-06-23 09:22:00,65.0,65.0,29.87,WNW,298,3.0,8.0,99,0.00,,,0.14,,2013-06-23 14:22:00,
2013-06-23 09:34:00,65.0,65.0,29.87,West,280,7.0,10.0,99,0.00,,,0.14,,2013-06-23 14:34:00,
2013-06-23 09:44:00,65.0,65.0,29.88,NW,304,6.0,7.0,99,0.00,,,0.14,,2013-06-23 14:44:00,
2013-06-23 09:52:00,66.0,66.0,29.89,WNW,287,3.0,5.0,99,0.00,,,0.14,,2013-06-23 14:52:00,
2013-06-23 10:05:00,66.0,66.0,29.90,WNW,296,7.0,9.0,99,0.00,,,0.14,,2013-06-23 15:05:00,
2013-06-23 10:11:00,66.0,66.0,29.91,West,277,5.0,7.0,99,0.00,,,0.14,,2013-06-23 15:11:00,
2013-06-23 10:22:00,67.0,67.0,29.91,West,262,1.0,2.0,99,0.00,,,0.14,,2013-06-23 15:22:00,
2013-06-23 10:35:00,67.0,67.0,29.91,SW,236,3.0,6.0,99,0.00,,,0.14,,2013-06-23 15:35:00,
2013-06-23 10:43:00,68.0,68.0,29.90,West,268,2.0,3.0,99,0.00,,,0.14,,2013-06-23 15:43:00,
2013-06-23 10:52:00,68.0,68.0,29.90,WSW,253,1.0,6.0,99,0.00,,,0.14,,2013-06-23 15:52:00,
2013-06-23 11:06:00,69.0,68.0,29.91,SSW,209,5.0,7.0,96,0.00,,,0.14,,2013-06-23 16:06:00,
2013-06-23 11:11:00,69.0,68.0,29.90,SSW,203,3.0,8.0,96,0.00,,,0.14,,2013-06-23 16:11:00,
2013-06-23 11:22:00,70.0,67.0,29.90,SSE,157,6.0,10.0,91,0.00,,,0.14,,2013-06-23 16:22:00,
2013-06-23 11:36:00,70.0,67.0,29.90,WSW,248,7.0,10.0,89,0.00,,,0.14,,2013-06-23 16:36:00,
2013-06-23 11:42:00,70.0,66.0,29.90,WSW,237,6.0,9.0,88,0.00,,,0.14,,2013-06-23 16:42:00,
2013-06-23 11:53:00,71.0,67.0,29.90,WSW,249,6.0,7.0,88,0.00,,,0.14,,2013-06-23 16:53:00,
2013-06-23 12:03:00,71.0,68.0,29.90,West,264,7.0,14.0,89,0.00,,,0.14,,2013-06-23 17:03:00,
2013-06-23 12:11:00,71.0,67.0,29.89,WSW,246,6.0,10.0,88,0.00,,,0.14,,2013-06-23 17:11:00,
2013-06-23 12:22:00,72.0,67.0,29.90,WSW,253,6.0,16.0,84,0.00,,,0.14,,2013-06-23 17:22:00,
2013-06-23 12:33:00,72.0,66.0,29.90,West,260,6.0,8.0,82,0.00,,,0.14,,2013-06-23 17:33:00,
2013-06-23 12:43:00,73.0,67.0,29.89,West,280,7.0,10.0,82,0.00,,,0.14,,2013-06-23 17:43:00,
2013-06-23 12:52:00,73.0,67.0,29.90,West,270,7.0,9.0,81,0.00,,,0.14,,2013-06-23 17:52:00,
2013-06-23 13:01:00,74.0,68.0,29.90,West,274,6.0,8.0,81,0.00,,,0.14,,2013-06-23 18:01:00,
2013-06-23 13:11:00,74.0,68.0,29.90,WNW,285,6.0,9.0,81,0.00,,,0.14,,2013-06-23 18:11:00,
2013-06-23 13:22:00,74.0,66.0,29.90,West,272,6.0,8.0,77,0.00,,,0.14,,2013-06-23 18:22:00,
2013-06-23 13:34:00,74.0,67.0,29.89,WNW,289,7.0,9.0,78,0.00,,,0.14,,2013-06-23 18:34:00,
2013-06-23 13:42:00,74.0,67.0,29.89,West,270,7.0,8.0,78,0.00,,,0.09,,2013-06-23 18:42:00,
2013-06-23 13:53:00,75.0,68.0,29.88,West,272,8.0,9.0,79,0.00,,,0.07,,2013-06-23 18:53:00,
2013-06-23 14:01:00,75.0,66.0,29.88,West,280,8.0,12.0,74,0.00,,,0.04,,2013-06-23 19:01:00,
2013-06-23 14:11:00,76.0,68.0,29.89,West,259,5.0,7.0,76,0.00,,,0.04,,2013-06-23 19:11:00,
2013-06-23 14:21:00,76.0,67.0,29.88,West,274,3.0,7.0,75,0.00,,,0.04,,2013-06-23 19:21:00,
2013-06-23 14:32:00,77.0,68.0,29.88,West,266,2.0,3.0,74,0.00,,,0.04,,2013-06-23 19:32:00,
2013-06-23 14:43:00,78.0,68.0,29.88,WNW,303,5.0,7.0,72,0.00,,,0.04,,2013-06-23 19:43:00,
2013-06-23 14:53:00,77.0,68.0,29.88,WNW,302,5.0,6.0,74,0.00,,,0.04,,2013-06-23 19:53:00,
2013-06-23 15:02:00,78.0,67.0,29.88,West,277,6.0,8.0,68,0.00,,,0.04,,2013-06-23 20:02:00,
2013-06-23 15:12:00,78.0,67.0,29.88,WNW,287,5.0,7.0,70,0.00,,,0.04,,2013-06-23 20:12:00,
2013-06-23 15:23:00,79.0,68.0,29.88,West,280,3.0,7.0,70,0.00,,,0.04,,2013-06-23 20:23:00,
2013-06-23 15:33:00,79.0,68.0,29.88,WSW,254,2.0,6.0,70,0.00,,,0.04,,2013-06-23 20:33:00,
2013-06-23 15:42:00,80.0,68.0,29.88,West,275,5.0,7.0,67,0.00,,,0.04,,2013-06-23 20:42:00,
2013-06-23 15:52:00,80.0,68.0,29.88,WSW,251,2.0,6.0,68,0.00,,,0.04,,2013-06-23 20:52:00,
2013-06-23 16:01:00,80.0,67.0,29.88,WNW,293,5.0,6.0,64,0.00,,,0.04,,2013-06-23 21:01:00,
2013-06-23 16:11:00,80.0,67.0,29.88,NW,309,2.0,2.0,64,0.00,,,0.04,,2013-06-23 21:11:00,
2013-06-23 16:22:00,80.0,68.0,29.88,WNW,297,2.0,5.0,67,0.00,,,0.04,,2013-06-23 21:22:00,
2013-06-23 16:33:00,80.0,67.0,29.88,West,278,3.0,5.0,65,0.00,,,0.04,,2013-06-23 21:33:00,
2013-06-23 16:44:00,81.0,69.0,29.88,NW,314,5.0,6.0,66,0.00,,,0.04,,2013-06-23 21:44:00,
2013-06-23 16:52:00,80.0,68.0,29.87,NW,306,5.0,7.0,67,0.00,,,0.04,,2013-06-23 21:52:00,
2013-06-23 17:01:00,81.0,68.0,29.87,WSW,257,1.0,2.0,64,0.00,,,0.04,,2013-06-23 22:01:00,
2013-06-23 17:11:00,81.0,67.0,29.87,West,275,3.0,7.0,63,0.00,,,0.04,,2013-06-23 22:11:00,
2013-06-23 17:22:00,82.0,68.0,29.87,SSW,207,0.0,2.0,62,0.00,,,0.04,,2013-06-23 22:22:00,
2013-06-23 17:32:00,82.0,68.0,29.87,West,275,0.0,0.0,63,0.00,,,0.04,,2013-06-23 22:32:00,
2013-06-23 17:43:00,84.0,68.0,29.87,West,275,0.0,0.0,59,0.00,,,0.04,,2013-06-23 22:43:00,
2013-06-23 17:53:00,82.0,67.0,29.87,West,280,3.0,5.0,61,0.00,,,0.04,,2013-06-23 22:53:00,
2013-06-23 18:01:00,82.0,68.0,29.87,NW,313,2.0,3.0,62,0.00,,,0.04,,2013-06-23 23:01:00,
2013-06-23 18:11:00,81.0,68.0,29.87,NNW,333,0.0,0.0,64,0.00,,,0.04,,2013-06-23 23:11:00,
2013-06-23 18:22:00,82.0,68.0,29.87,WNW,301,3.0,5.0,62,0.00,,,0.04,,2013-06-23 23:22:00,
2013-06-23 18:33:00,82.0,69.0,29.88,WNW,299,1.0,3.0,64,0.00,,,0.04,,2013-06-23 23:33:00,
2013-06-23 18:44:00,82.0,68.0,29.88,West,275,0.0,1.0,63,0.00,,,0.04,,2013-06-23 23:44:00,
2013-06-23 18:52:00,82.0,67.0,29.88,SW,216,0.0,0.0,61,0.00,,,0.04,,2013-06-23 23:52:00,
2013-06-23 19:01:00,82.0,68.0,29.87,SSE,164,0.0,0.0,62,0.00,,,0.04,,2013-06-24 00:01:00,
2013-06-23 19:11:00,81.0,68.0,29.87,SSE,164,0.0,0.0,64,0.00,,,0.04,,2013-06-24 00:11:00,
2013-06-23 19:22:00,82.0,69.0,29.87,SSE,164,0.0,0.0,64,0.00,,,0.04,,2013-06-24 00:22:00,
2013-06-23 19:33:00,81.0,68.0,29.87,SSE,164,0.0,0.0,65,0.00,,,0.04,,2013-06-24 00:33:00,
2013-06-23 19:42:00,82.0,69.0,29.88,SSE,164,0.0,0.0,65,0.00,,,0.04,,2013-06-24 00:42:00,
2013-06-23 19:52:00,81.0,69.0,29.88,SSE,164,0.0,0.0,67,0.00,,,0.04,,2013-06-24 00:52:00,
2013-06-23 20:01:00,80.0,69.0,29.88,SSE,164,0.0,0.0,69,0.00,,,0.04,,2013-06-24 01:01:00,
2013-06-23 20:11:00,80.0,70.0,29.88,SSE,164,0.0,0.0,72,0.00,,,0.04,,2013-06-24 01:11:00,
2013-06-23 20:22:00,79.0,69.0,29.88,SSE,164,0.0,0.0,72,0.00,,,0.04,,2013-06-24 01:22:00,
2013-06-23 20:32:00,79.0,69.0,29.88,SSE,164,0.0,0.0,72,0.00,,,0.04,,2013-06-24 01:32:00,
2013-06-23 20:42:00,79.0,69.0,29.88,SSE,164,0.0,0.0,72,0.00,,,0.04,,2013-06-24 01:42:00,
2013-06-23 20:52:00,78.0,69.0,29.88,SSE,164,0.0,0.0,74,0.00,,,0.04,,2013-06-24 01:52:00,
2013-06-23 21:01:00,78.0,69.0,29.88,SSE,164,0.0,0.0,74,0.00,,,0.04,,2013-06-24 02:01:00,
2013-06-23 21:11:00,78.0,70.0,29.88,SSE,164,0.0,0.0,76,0.00,,,0.04,,2013-06-24 02:11:00,
2013-06-23 21:22:00,77.0,69.0,29.88,SSE,164,0.0,0.0,77,0.00,,,0.04,,2013-06-24 02:22:00,
2013-06-23 21:33:00,77.0,70.0,29.88,SSE,164,0.0,0.0,79,0.00,,,0.04,,2013-06-24 02:33:00,
2013-06-23 21:42:00,75.0,69.0,29.88,SSE,164,0.0,0.0,81,0.00,,,0.04,,2013-06-24 02:42:00,
2013-06-23 21:53:00,74.0,70.0,29.88,SSE,150,0.0,3.0,88,0.00,,,0.04,,2013-06-24 02:53:00,
2013-06-23 22:01:00,74.0,71.0,29.89,SE,140,3.0,5.0,90,0.00,,,0.04,,2013-06-24 03:01:00,
2013-06-23 22:11:00,74.0,72.0,29.90,SE,142,3.0,5.0,92,0.00,,,0.04,,2013-06-24 03:11:00,
2013-06-23 22:22:00,74.0,72.0,29.90,SSE,157,5.0,5.0,93,0.00,,,0.04,,2013-06-24 03:22:00,
2013-06-23 22:33:00,74.0,72.0,29.91,SE,146,5.0,5.0,92,0.00,,,0.04,,2013-06-24 03:33:00,
2013-06-23 22:43:00,74.0,72.0,29.91,SE,135,3.0,3.0,94,0.00,,,0.04,,2013-06-24 03:43:00,
2013-06-23 22:53:00,73.0,72.0,29.92,SE,134,3.0,5.0,96,0.00,,,0.04,,2013-06-24 03:53:00,
2013-06-23 23:02:00,73.0,72.0,29.92,SE,134,5.0,6.0,97,0.00,,,0.04,,2013-06-24 04:02:00,
2013-06-23 23:12:00,72.0,71.0,29.92,SE,146,3.0,5.0,97,0.00,,,0.04,,2013-06-24 04:12:00,
2013-06-23 23:22:00,72.0,71.0,29.92,SSE,147,2.0,3.0,98,0.00,,,0.04,,2013-06-24 04:22:00,
2013-06-23 23:33:00,72.0,71.0,29.93,South,183,1.0,5.0,98,0.00,,,0.04,,2013-06-24 04:33:00,
2013-06-23 23:43:00,72.0,71.0,29.93,SSE,165,0.0,0.0,98,0.00,,,0.04,,2013-06-24 04:43:00,
2013-06-23 23:52:00,72.0,71.0,29.93,SSE,165,0.0,0.0,98,0.00,,,0.04,,2013-06-24 04:52:00,